Location: Plymouth
(43.7570°N, 71.6890°W)
Time: 16:23:24
(UTC-04:00)

Daily predictions for brighter satellites

Satellite Brightness Start Highest point End
(mag) Time Altitude Azimuth Time Altitude Azimuth Time Altitude Azimuth
Cosmos 2298 Rocket 4.4 20:37:14 10° SSW 20:42:31 73° WNW 20:47:50 10° NNE
Helios 1A 3.2 20:40:48 10° SSE 20:44:53 55° ENE 20:49:02 10° N
USA 186 2.7 20:43:29 10° S 20:46:05 41° W 20:48:54 10° NNW
NOSS 3-2 (A) 4.0 20:40:20 10° SW 20:46:19 67° NW 20:52:59 10° NNE
ERS-1 Rocket 3.7 20:44:46 10° SE 20:49:20 36° ENE 20:53:56 10° N
Cosmos 1933 Rocket 4.5 20:47:08 10° SSW 20:51:22 53° WNW 20:55:39 10° N
ARGOS 4.2 20:48:11 10° ESE 20:52:43 29° ENE 20:57:15 10° N
Cosmos 1939 Rocket 3.0 20:50:23 10° SSE 20:54:32 88° W 20:58:40 10° NNW
USA 215 3.7 20:51:40 10° ESE 20:58:02 56° NNE 21:04:25 10° NW
Cosmos 1408 3.5 20:55:20 10° SSE 20:58:36 30° E 21:01:54 10° NNE
Spot 1 4.5 20:54:53 10° SSE 20:59:41 72° ENE 21:04:45 10° N
ISS -3.9 20:58:06 10° WSW 21:01:20 90° SW 21:04:36 10° ENE
Terra 4.1 21:01:32 10° ENE 21:02:12 10° ENE 21:02:53 10° NE
Resurs 01 Rocket 3.6 21:00:53 10° SSW 21:04:44 29° W 21:08:38 10° NW
Tiangong 2 3.1 21:04:05 10° WSW 21:06:29 19° SSW 21:08:52 10° SSE
NOSS 3-2 (C) 4.1 21:01:42 10° SW 21:07:43 63° NW 21:14:22 10° NNE
Cosmos 2279 Rocket 4.2 21:05:17 10° N 21:11:27 56° ENE 21:17:33 10° SSE
Meteor 2-3 Rocket 4.1 21:06:28 10° SSW 21:12:10 69° WNW 21:17:50 10° N
CZ-4B DEB 2.5 21:09:58 10° SSE 21:12:54 86° ENE 21:15:50 10° NNW
Okean 1-7 3.0 21:10:03 10° N 21:14:29 76° E 21:18:52 10° SSE
Cosmos 1825 2.5 21:11:49 10° SSE 21:15:26 45° E 21:19:04 10° NNE
CENTAUR R/B 2.5 21:12:36 10° SSW 21:18:30 62° ESE 21:25:13 10° NE
Cosmos 1782 2.8 21:16:15 10° N 21:20:16 73° E 21:24:10 10° SSE
SPOT 5 3.7 21:17:37 13° SE 21:22:07 43° ENE 21:27:05 10° N
Cosmos 2344 3.9 21:15:09 10° S 21:22:18 45° ESE 21:30:04 10° NE
Envisat 4.4 21:19:58 10° SSW 21:24:38 37° W 21:29:21 10° NNW
MetOp-A 4.2 21:19:56 11° SSE 21:25:05 66° ENE 21:30:24 10° N
Cosmos 372 Rocket 4.0 21:20:36 10° S 21:25:37 58° ESE 21:30:39 10° NNE
H-2A ROCKET BODY 3.9 21:29:38 10° S 21:31:33 12° SSE 21:32:06 12° SSE
SPOT 1/Viking Rocket 4.2 21:29:53 16° SE 21:33:37 40° ENE 21:38:29 10° N
DNEPR-1 R/B 3.7 21:29:32 10° SSW 21:34:45 80° ESE 21:39:14 10° NE
Cosmos 1943 Rocket 2.1 21:29:17 10° SSW 21:34:51 74° ESE 21:40:24 10° NNE
Cosmos 1269 Rocket 4.0 21:31:33 10° NNW 21:36:52 85° ENE 21:41:09 16° SSE
deb Kosmos-1763 4.2 21:36:40 10° NNW 21:40:26 77° WSW 21:43:07 18° SSE
Cosmos 1125 Rocket 3.5 21:35:32 10° SSW 21:40:47 86° WNW 21:46:03 10° NNE
Helios 1B rocket 3.5 21:37:46 10° N 21:41:44 47° WNW 21:45:40 10° SW
Cosmos 1862 3.4 21:38:57 15° S 21:42:04 54° E 21:45:57 10° NNE
Cosmos 1733 Rocket 3.4 21:40:35 18° SSE 21:43:25 43° E 21:47:32 10° NNE
Cosmos 1340 2.7 21:45:08 10° NNW 21:48:57 79° W 21:51:33 19° S
NOAA 11 4.5 21:44:21 10° S 21:49:44 67° WSW 21:55:14 10° NNW
Lacrosse 4 Rocket 1.6 21:47:22 10° NNW 21:51:54 81° WSW 21:54:34 24° SSE
Cosmos 2369 Rocket 3.5 21:55:08 10° SW 22:00:30 42° WNW 22:05:55 10° NNE
ATLAS CENTAUR R/B 2.8 22:02:49 20° E 22:02:49 20° E 22:04:48 10° ENE
SL-08 RB Rocket 3.7 22:00:57 22° SSE 22:03:59 86° W 22:08:40 10° NNW
Cosmos 1346 4.1 22:03:04 10° NNE 22:05:14 27° ENE 22:05:14 27° ENE
Cosmos 405 Rocket 4.5 22:03:45 10° NNE 22:06:14 17° ENE 22:06:44 16° E
Cosmos 1606 4.3 22:03:34 10° NNW 22:06:57 32° W 22:10:13 11° SSW
Cosmos 494 Rocket 4.2 22:02:02 10° NNW 22:07:12 58° ENE 22:09:45 29° SE
Cosmos 1833 4.4 22:02:19 10° NNW 22:08:05 71° WSW 22:11:43 23° S
Cosmos 1867 3.7 22:02:56 10° NNW 22:08:23 64° NE 22:11:15 28° SE
H-2A R/B 2.1 22:11:05 24° SSE 22:14:26 87° WSW 22:19:47 10° NNW
CARTOSAT-1 4.0 22:16:12 34° ESE 22:17:37 47° ENE 22:21:47 10° N
Cosmos 2297 Rocket 4.1 22:14:05 10° N 22:18:06 19° NE 22:21:29 12° E
ATLAS 5 CENTAUR R/B 3.0 22:13:11 10° NW 22:19:00 51° WSW 22:22:52 23° S
Cosmos 1674 Rocket 3.4 22:15:04 10° N 22:19:25 87° ENE 22:21:11 35° S
Cosmos 1378 Rocket 3.9 22:15:23 10° N 22:19:41 48° ENE 22:20:59 37° SE
Lacrosse 5 rocket 3.3 22:18:34 10° W 22:21:40 27° NNW 22:24:52 10° NNE
Landsat 7 3.7 22:21:55 34° SSE 22:23:58 79° ENE 22:28:44 10° N
Cosmos 1656 Rocket 3.6 22:25:58 10° SSW 22:31:26 86° WNW 22:37:00 10° NNE
BREEZE-M DEB (TANK) 3.7 22:27:45 10° WNW 22:31:29 78° SSW 22:40:24 21° SE
ARGOS 4.1 22:28:53 16° SSW 22:32:46 41° W 22:37:51 10° NNW
H-2A R/B 2.5 22:33:43 38° E 22:34:26 42° ENE 22:38:20 10° N
Okean 3 3.3 22:30:24 10° N 22:34:35 78° E 22:35:36 51° SSE
Nadezhda 4 Rocket 4.2 22:30:14 13° SSW 22:35:45 69° W 22:41:55 10° N
Cosmos 1092 Rocket 3.9 22:31:56 24° S 22:35:52 86° E 22:42:02 10° N
IGS 5A 3.4 22:36:31 51° SE 22:37:25 72° ENE 22:41:35 10° N
ISS -1.4 22:35:23 10° WNW 22:38:08 25° NNW 22:40:54 10° NE
Terra 1.7 22:37:34 43° SSE 22:39:07 79° ENE 22:43:54 10° N
USA 215 3.6 22:37:58 30° SSE 22:41:04 52° SW 22:47:27 10° WNW
Cosmos 1627 Rocket 4.5 22:42:23 34° SSE 22:45:13 69° E 22:51:31 10° NNE
Meteor 1-20 Rocket 4.4 22:51:21 42° SE 22:52:53 55° E 22:58:24 10° NNE
Cosmos 1437 3.9 22:53:08 10° NNW 22:56:07 36° W 22:56:09 36° W
Cosmos 1908 Rocket 3.8 22:55:35 41° SSW 22:57:03 68° W 23:01:29 10° N
ARGOS Delta rocket 4.0 22:56:25 10° NNE 23:00:40 47° E 23:00:40 47° E
Meteor 1-25 Rocket 4.2 22:59:05 44° SSE 23:00:57 72° E 23:06:47 10° NNE
CZ-2C R/B 4.0 23:00:30 10° NE 23:04:11 22° E 23:04:11 22° E
Cosmos 1633 3.9 23:07:12 30° NE 23:07:12 30° NE 23:09:27 10° NNE
Milstar 3 4.0 22:58:39 10° WSW 23:05:32 26° SSW 23:05:32 26° SSW
Cosmos 2251 Rocket 4.0 23:01:07 10° NNW 23:06:12 52° WSW 23:07:41 39° SSW
Cosmos 2227 Rocket 2.7 23:02:54 10° NNW 23:08:24 49° ENE 23:10:00 38° ESE
Okean 2 Rocket 3.1 23:08:46 63° E 23:08:48 63° E 23:13:13 10° NNE
CENTAUR R/B 4.3 23:03:58 10° W 23:09:39 34° NW 23:16:03 10° NNE
DELTA 2 DEB (DPAF) 4.1 23:14:24 64° E 23:14:42 66° ENE 23:19:09 10° N
Cosmos 2219 3.6 23:10:03 10° NNW 23:15:40 55° WSW 23:17:12 42° SSW
Spot 4 3.7 23:17:07 66° S 23:17:49 87° WSW 23:22:40 10° NNW
deb Chang Zheng 4 3.5 23:14:58 10° NNE 23:19:27 89° WNW 23:19:47 76° SSW
CZ-4 R/B 3.6 23:15:13 10° NNE 23:19:53 89° WNW 23:20:28 68° SSW
Cosmos 1812 3.3 23:16:48 10° NNW 23:20:33 50° W 23:20:33 50° W
Cosmos 1782 Rocket 3.9 23:23:54 52° WSW 23:24:32 59° W 23:28:54 10° N
USA 229 DEB 4.4 23:27:13 33° ESE 23:27:13 33° ESE 23:32:59 10° NE
USA 229 4.4 23:27:21 33° ESE 23:27:21 33° ESE 23:33:04 10° NE
GEOS 3 Rocket 4.0 23:30:20 45° SW 23:30:53 46° WSW 23:35:56 10° NW
Cosmos 2369 3.9 23:33:38 52° ESE 23:33:44 52° ESE 23:39:16 10° NE
Cosmos 1980 Rocket 4.1 23:35:37 15° E 23:35:37 15° E 23:37:49 10° ENE
Meteor 1-11 Rocket 4.0 23:38:32 50° ESE 23:39:09 52° E 23:44:55 10° NNE
Meteor 2-4 Rocket 4.1 23:34:28 10° N 23:39:38 46° ENE 23:40:11 44° E
Gbstr 26 Del rocket 3.2 23:35:54 10° WNW 23:39:33 61° NW 23:39:33 61° NW
ATLAS CENTAUR R/B 2.7 23:39:00 26° W 23:40:31 35° NW 23:44:04 10° NNE
Cosmos 1536 4.4 23:43:24 28° ENE 23:43:24 28° ENE 23:45:54 10° NNE
Cosmos 405 Rocket 4.1 23:39:04 10° NNW 23:41:56 30° WNW 23:41:56 30° WNW
Cosmos 1655 Rocket 4.3 23:42:10 39° SW 23:44:26 62° W 23:50:38 10° N
Cosmos 1624 Rocket 4.5 23:45:16 47° E 23:45:16 47° E 23:50:00 10° NNE
Cosmos 1975 Rocket 4.1 23:40:56 10° NNW 23:45:03 37° W 23:45:23 36° WSW
Cosmos 407 Rocket 4.2 23:40:50 10° N 23:45:55 42° ENE 23:46:45 40° E
CZ-4C R/B 3.8 23:46:58 59° WNW 23:46:58 59° WNW 23:50:44 10° NNW
Okean 1 4.3 23:47:03 10° NNW 23:50:24 41° WNW 23:50:24 41° WNW
ALOS 2 3.1 23:53:43 51° NE 23:53:43 51° NE 23:57:41 10° N
BREEZE M DEB (TANK) 4.2 23:51:42 10° W 23:56:30 35° NNW 23:57:09 31° NNE
